Dewpoint
11 11 9 8 9 10 9 8 8 8 8 8 7 6 7 7 5 6 7 7 6 3 4 6 7 6 6 6 6 6 6 6 5 6 5 4 1 -4
11 10 8 9 10 10 10 9 8 8 8 7 7 6 6 7 7 6 6 7 7 8 7 7 7 7 6 6 6 6 6 6 5 4 3 1 -2 -5
9 9 9 9 9 10 10 10 9 8 8 7 7 6 6 7 7 6 6 6 7 7 8 7 8 8 6 6 6 5 5 4 4 3 -3 -5 -6 -21
9 9 9 9 9 10 10 10 9 8 8 7 7 7 7 7 8 7 7 7 8 8 8 8 8 7 7 5 5 5 4 3 3 -0 -5 -15 -29 -34
9 10 9 9 10 10 10 9 9 9 8 8 7 7 7 7 7 8 8 7 7 7 7 7 7 7 6 5 4 3 2 2 -1 -3 -21 -30 -34 -31
10 9 9 10 9 9 9 9 9 8 8 8 8 7 7 7 6 7 7 6 7 7 6 5 6 5 5 4 2 1 -1 -1 -3 -8 -34 -33 -30 -30
9 9 9 9 9 9 9 9 8 8 8 8 8 7 7 6 6 6 6 6 5 5 4 3 4 4 3 3 1 -0 -2 -3 -11 -36 -32 -29 -28 -29
9 9 9 10 9 9 8 9 9 8 8 8 8 7 7 7 7 6 6 5 2 3 2 2 2 2 1 1 -1 -2 -3 -5 -22 -32 -28 -28 -26 -28
9 10 9 9 9 9 9 9 9 9 9 8 8 7 7 7 7 7 7 6 6 4 2 1 1 1 -1 -2 -3 -3 -5 -21 -31 -28 -27 -26 -25 -25
9 10 9 9 9 9 9 9 9 9 9 9 9 8 7 7 7 7 7 6 4 2 1 -0 -1 -1 -3 -4 -5 -5 -17 -31 -27 -26 -26 -23 -24 -23
10 10 8 9 9 9 9 9 9 8 8 9 9 8 8 8 8 7 6 6 2 1 -0 -0 -1 -3 -5 -6 -6 -11 -24 -26 -24 -25 -23 -23 -24 -20
9 8 9 9 9 9 9 8 8 8 8 8 8 8 7 7 7 6 7 6 5 -0 -0 -1 -3 -4 -7 -8 -9 -20 -23 -20 -22 -21 -21 -24 -23 -19
8 8 8 9 9 8 8 8 8 8 7 7 6 6 7 4 5 5 5 5 5 4 2 -0 -3 -4 -5 -7 -12 -20 -20 -17 -17 -17 -18 -19 -19 -18
8 8 8 8 8 7 7 6 5 6 5 4 3 3 5 4 5 3 2 2 1 1 1 -1 -2 -3 -4 -18 -21 -20 -18 -16 -15 -15 -16 -17 -18 -18
8 8 8 7 7 7 5 3 3 3 3 3 3 2 2 3 1 -0 -1 -0 -1 -1 -2 -3 -4 -6 -19 -30 -27 -22 -19 -16 -15 -15 -16 -17 -18 -19
7 7 7 6 6 5 4 2 1 1 2 3 2 1 0 -0 -1 -1 -1 -2 -3 -5 -8 -24 -36 -32 -31 -25 -22 -21 -17 -15 -16 -16 -16 -18 -19 -20
7 5 4 4 3 2 1 -0 -0 0 1 1 0 -1 -1 -2 -3 -4 -4 -6 -8 -15 -25 -32 -28 -25 -21 -20 -19 -18 -16 -15 -16 -17 -18 -19 -19 -19
2 5 3 2 2 0 -1 -1 -1 -1 -1 -2 -3 -3 -4 -4 -6 -10 -12 -24 -31 -32 -31 -28 -27 -23 -19 -18 -17 -16 -16 -16 -17 -18 -20 -21 -18 -17
-4 0 2 -0 -1 -1 -2 -2 -3 -3 -3 -3 -3 -5 -6 -7 -13 -33 -34 -34 -33 -32 -31 -31 -29 -26 -24 -19 -16 -14 -15 -16 -17 -18 -18 -19 -20 -18
-6 -6 -4 -3 -3 -4 -4 -4 -5 -5 -6 -6 -7 -8 -10 -10 -13 -27 -32 -34 -34 -34 -35 -32 -30 -29 -25 -22 -20 -19 -18 -17 -17 -17 -17 -17 -18 -20
-8 -8 -8 -8 -7 -7 -6 -6 -6 -7 -7 -7 -8 -9 -15 -29 -32 -32 -33 -33 -34 -33 -35 -34 -32 -31 -30 -27 -21 -18 -17 -17 -17 -16 -16 -17 -18 -19
-8 -9 -10 -9 -8 -7 -7 -7 -8 -8 -9 -12 -24 -30 -31 -33 -33 -32 -32 -32 -30 -30 -31 -30 -30 -30 -29 -30 -27 -22 -18 -16 -15 -14 -14 -15 -16 -15
-9 -9 -9 -8 -8 -8 -8 -9 -9 -13 -25 -30 -31 -30 -30 -30 -30 -30 -30 -29 -30 -30 -29 -28 -26 -26 -26 -24 -24 -22 -22 -20 -17 -16 -15 -14 -14 -12
Wind_Speed
39 38 37 40 41 44 45 42 41 31 36 42 41 42 37 34 31 32 31 31 28 28 27 23 23 23 22 21 20 18 22 25 27 26 24 22 20 18
36 35 36 37 38 43 48 50 47 43 33 45 45 44 42 40 36 33 32 33 31 28 29 27 26 26 27 25 23 20 25 25 25 24 22 19 18 18
33 34 37 36 38 43 46 55 54 51 39 48 44 44 43 43 41 37 35 34 33 33 31 30 30 29 28 27 24 22 26 23 24 21 16 17 17 15
34 34 37 38 40 35 43 53 52 50 44 49 47 47 42 44 43 40 39 37 36 35 35 35 34 34 32 27 18 24 22 19 22 16 16 13 13 8
35 37 36 35 38 36 39 36 49 57 54 52 49 46 47 46 45 43 42 40 38 38 38 39 36 33 26 24 22 20 19 15 15 14 11 10 7 6
37 38 38 37 35 34 35 39 53 49 52 50 48 47 49 51 47 48 45 40 39 39 36 33 32 30 27 22 21 17 12 13 12 11 8 8 7 6
35 33 33 32 31 30 31 35 42 51 54 53 50 49 53 54 54 50 47 44 39 36 33 27 25 24 18 19 18 13 12 12 10 8 8 8 7 6
32 30 29 28 27 26 27 33 45 48 53 59 55 55 57 56 56 54 52 46 38 37 32 28 24 21 18 19 17 16 13 10 9 8 8 8 8 7
29 29 26 23 24 24 24 23 32 52 51 49 55 58 56 58 58 56 52 49 44 38 33 28 26 23 20 18 17 13 8 8 9 9 9 9 9 8
26 28 27 25 26 24 25 26 30 40 45 56 57 61 52 53 54 54 51 48 37 29 31 28 27 22 21 18 14 10 7 10 10 10 10 10 10 9
27 28 27 25 25 25 26 28 34 40 46 45 41 43 48 53 56 59 51 44 41 35 33 29 27 23 20 16 14 8 11 10 10 10 10 11 11 10
29 31 32 30 28 28 27 30 30 37 48 52 48 42 35 53 53 57 43 43 40 34 35 30 27 25 17 19 13 14 12 10 11 10 11 11 11 11
33 31 31 29 27 27 27 28 31 36 48 51 48 43 35 38 39 46 44 40 42 38 32 32 28 27 17 15 21 18 14 13 12 10 9 10 11 11
29 28 27 25 25 25 24 25 27 37 45 43 42 41 44 41 37 41 39 33 32 27 21 24 26 25 22 17 20 21 17 15 14 11 10 9 10 10
27 26 26 23 21 19 18 16 24 35 39 42 42 39 35 33 34 33 31 29 26 18 18 22 15 20 18 14 17 18 18 16 15 13 11 11 10 11
30 28 24 19 16 16 16 16 24 31 33 35 34 32 32 32 32 31 31 27 24 24 20 16 14 16 15 14 13 16 16 11 13 13 12 10 11 12
29 26 23 19 20 20 21 24 29 32 34 36 39 39 37 35 32 27 24 23 21 24 23 19 17 15 14 12 14 15 15 14 13 11 10 10 10 11
30 30 27 26 26 29 31 32 31 33 35 37 36 35 36 34 32 27 24 24 24 23 21 18 16 16 15 13 12 12 13 12 10 11 12 13 9 12
28 31 32 32 34 35 35 35 37 37 37 35 34 34 33 32 30 29 26 23 23 21 17 14 14 13 13 13 11 11 9 11 11 10 12 13 12 7
25 29 34 36 37 37 37 37 38 37 36 34 34 33 32 29 28 28 25 22 21 19 17 14 11 10 10 9 9 10 11 11 11 11 11 12 11 10
23 28 31 34 36 37 37 36 36 35 35 35 33 31 29 29 28 25 23 20 18 16 14 13 11 8 7 6 7 8 10 12 11 11 11 11 9 7
21 22 25 28 32 34 35 36 37 36 34 32 31 29 27 25 24 23 20 18 16 13 11 10 8 6 5 3 3 5 8 10 12 12 13 12 11 7
29 31 32 32 33 35 36 35 35 33 32 31 29 27 25 23 21 19 17 15 12 11 9 7 6 3 1 1 2 4 6 5 6 6 9 11 12 11
Wind_Direction
239 241 242 246 249 243 229 218 211 198 204 215 217 216 215 215 213 209 213 216 219 220 223 230 238 242 242 243 249 272 284 290 292 284 282 286 287 291
240 240 245 245 248 250 246 228 221 215 203 209 215 217 214 215 215 215 217 218 221 224 227 230 239 242 245 244 251 270 283 289 295 284 285 284 286 290
239 240 244 245 251 250 250 233 227 216 205 204 212 213 215 214 215 216 219 220 224 228 233 238 239 245 242 241 249 277 279 283 291 279 277 281 288 293
239 239 245 247 251 253 254 236 228 205 203 206 204 207 211 210 214 214 215 218 221 227 230 231 238 246 252 248 271 281 279 275 282 270 279 281 283 284
241 242 247 249 251 248 248 256 230 219 209 212 204 202 208 206 206 208 209 212 214 221 225 229 234 249 257 250 279 277 255 272 265 271 273 270 268 272
244 246 248 249 251 255 257 242 223 208 208 207 211 205 209 204 202 205 201 205 211 219 221 224 235 240 237 257 266 252 250 260 268 268 249 248 256 264
241 245 246 248 252 249 252 255 214 214 213 211 209 208 209 202 201 199 205 209 209 216 217 216 223 233 244 270 248 244 241 254 252 241 237 243 250 253
244 249 245 246 248 245 241 244 229 213 215 215 212 213 214 211 205 205 204 203 200 213 210 213 221 228 233 243 240 235 235 231 233 229 236 240 240 247
246 249 247 249 249 249 241 240 233 230 236 227 219 218 217 219 215 208 208 215 214 216 211 214 221 224 234 235 231 230 216 213 223 228 233 235 236 238
241 244 252 247 251 250 250 242 245 251 242 235 238 226 226 229 226 221 214 212 213 213 209 213 215 223 228 228 226 220 209 219 227 231 230 230 229 238
238 240 246 248 245 248 248 249 244 235 231 234 231 230 239 225 223 213 207 207 201 205 206 212 213 215 213 217 216 201 224 226 229 233 234 230 233 239
243 246 249 249 248 253 256 249 255 246 236 233 221 222 238 220 224 210 211 210 215 204 210 208 209 203 193 208 204 211 220 215 225 232 233 232 234 240
245 248 247 246 248 256 258 253 253 247 230 218 214 204 211 212 206 208 211 216 220 214 217 215 206 201 196 195 203 211 213 216 220 227 232 232 237 246
240 240 238 248 254 258 259 252 245 237 220 210 201 187 185 188 198 205 210 210 210 222 224 212 209 203 203 194 193 205 208 215 219 225 233 236 243 256
226 229 237 239 242 244 239 232 231 218 201 192 182 177 180 188 192 191 189 187 188 187 182 185 190 198 198 212 208 203 203 210 219 225 234 241 250 262
221 224 225 218 221 223 214 210 207 198 193 185 178 172 172 171 170 174 177 172 170 156 161 173 176 185 199 203 210 203 205 207 223 231 237 247 256 265
214 207 198 192 184 180 177 178 181 182 180 175 169 162 161 162 159 158 157 148 150 158 165 163 166 173 177 191 190 198 208 218 230 236 247 254 262 263
190 191 185 180 176 172 170 170 171 171 168 163 159 156 155 153 147 141 145 154 155 153 157 159 164 168 173 177 188 202 212 223 236 248 259 265 253 251
191 180 179 176 172 171 169 168 163 163 163 162 159 155 151 143 139 147 149 153 151 151 153 157 164 169 179 184 197 209 227 242 253 259 264 271 283 255
183 173 170 171 171 169 167 165 161 158 157 153 147 141 138 141 149 155 153 151 149 146 145 146 155 167 178 193 203 221 238 249 260 265 261 268 282 282
172 165 162 162 163 161 159 156 152 147 144 139 136 137 147 152 148 145 143 142 141 139 140 144 152 160 170 182 196 224 254 270 277 284 288 289 289 266
167 158 154 151 148 147 147 146 141 138 132 132 141 145 145 146 143 142 141 141 139 136 138 140 147 154 156 167 202 223 234 250 267 280 294 299 295 294
151 149 148 145 144 142 142 140 131 130 140 142 141 141 140 140 139 140 140 141 140 140 140 141 139 142 146 195 288 298 299 289 268 247 256 272 282 285
Height
1460 1463 1466 1468 1472 1474 1478 1478 1482 1486 1490 1496 1501 1506 1511 1517 1520 1525 1529 1532 1535 1539 1542 1544 1546 1549 1550 1551 1551 1551 1552 1551 1549 1547 1546 1545 1544 1542
1452 1456 1458 1461 1464 1467 1469 1470 1471 1479 1482 1485 1491 1498 1504 1510 1515 1520 1523 1527 1531 1534 1537 1539 1541 1543 1545 1545 1546 1546 1546 1545 1544 1543 1542 1540 1540 1538
1445 1448 1450 1454 1456 1459 1459 1454 1461 1467 1472 1474 1482 1489 1496 1502 1507 1513 1517 1522 1525 1529 1532 1534 1536 1537 1537 1539 1540 1540 1540 1539 1538 1538 1537 1537 1535 1535
1437 1440 1442 1446 1448 1450 1451 1448 1452 1457 1459 1466 1471 1479 1487 1493 1500 1505 1510 1515 1519 1521 1524 1527 1529 1531 1531 1534 1534 1535 1533 1532 1532 1533 1534 1533 1532 1531
1430 1432 1435 1438 1440 1442 1444 1443 1443 1447 1449 1455 1462 1469 1476 1485 1490 1497 1503 1507 1511 1514 1516 1519 1521 1524 1525 1528 1529 1528 1528 1526 1527 1528 1530 1531 1530 1529
1422 1425 1427 1429 1431 1434 1435 1434 1434 1438 1441 1448 1454 1461 1469 1476 1483 1487 1493 1499 1503 1506 1509 1512 1514 1517 1519 1521 1523 1522 1522 1522 1524 1525 1527 1527 1528 1528
1415 1417 1419 1421 1424 1426 1428 1428 1429 1432 1434 1440 1446 1452 1459 1464 1470 1477 1485 1491 1496 1500 1503 1505 1508 1512 1513 1514 1517 1515 1518 1519 1521 1523 1524 1525 1526 1526
1408 1410 1411 1414 1416 1418 1420 1421 1420 1422 1426 1431 1434 1441 1448 1455 1462 1468 1474 1481 1488 1493 1496 1501 1503 1506 1508 1509 1510 1512 1513 1515 1518 1520 1521 1522 1523 1524
1400 1404 1406 1407 1409 1411 1414 1417 1417 1417 1417 1420 1426 1432 1437 1444 1451 1458 1466 1473 1477 1484 1490 1493 1498 1500 1502 1502 1505 1508 1510 1513 1515 1516 1517 1519 1520 1520
1392 1396 1400 1402 1403 1405 1406 1409 1411 1413 1414 1413 1417 1421 1431 1437 1443 1451 1459 1466 1474 1479 1482 1487 1491 1493 1495 1498 1501 1503 1507 1510 1511 1513 1514 1516 1516 1517
1386 1390 1393 1395 1396 1398 1400 1401 1402 1404 1406 1409 1411 1419 1424 1427 1434 1442 1449 1458 1465 1471 1475 1480 1483 1487 1491 1494 1497 1500 1504 1506 1508 1509 1510 1512 1513 1513
1379 1383 1385 1388 1388 1391 1392 1393 1395 1396 1400 1402 1404 1410 1415 1420 1427 1435 1443 1451 1458 1464 1468 1474 1476 1481 1487 1490 1494 1498 1501 1503 1505 1506 1507 1508 1509 1510
1373 1375 1378 1380 1381 1383 1385 1386 1387 1388 1390 1394 1397 1401 1408 1417 1425 1433 1439 1444 1447 1451 1457 1464 1470 1476 1481 1485 1490 1495 1498 1500 1502 1504 1505 1506 1507 1507
1365 1368 1371 1373 1374 1376 1377 1378 1379 1382 1385 1389 1394 1395 1400 1409 1417 1427 1433 1440 1446 1452 1456 1461 1466 1471 1476 1481 1486 1491 1495 1498 1500 1502 1503 1503 1504 1504
1358 1361 1365 1366 1367 1369 1371 1373 1376 1381 1384 1387 1390 1397 1403 1408 1416 1423 1434 1435 1441 1450 1455 1460 1466 1471 1476 1480 1483 1487 1491 1495 1497 1498 1500 1501 1501 1500
1352 1355 1359 1360 1362 1364 1367 1371 1376 1382 1387 1391 1393 1398 1401 1409 1417 1424 1429 1433 1441 1448 1455 1461 1466 1472 1475 1480 1483 1487 1490 1494 1495 1496 1496 1497 1497 1496
1344 1349 1354 1355 1359 1362 1366 1372 1377 1382 1386 1390 1394 1397 1403 1410 1418 1426 1431 1436 1442 1450 1456 1461 1465 1471 1475 1479 1482 1486 1488 1490 1491 1493 1493 1493 1493 1493
1343 1343 1348 1353 1356 1361 1366 1373 1378 1383 1388 1393 1396 1400 1406 1413 1419 1427 1435 1441 1446 1452 1457 1460 1464 1469 1474 1478 1482 1485 1486 1488 1489 1490 1490 1490 1490 1490
1347 1342 1343 1350 1355 1361 1368 1373 1378 1384 1388 1393 1398 1404 1410 1416 1424 1431 1438 1443 1448 1453 1457 1461 1465 1468 1471 1475 1479 1482 1483 1484 1485 1486 1487 1486 1486 1487
1346 1345 1346 1348 1356 1361 1368 1374 1379 1385 1390 1396 1403 1409 1416 1422 1428 1435 1440 1445 1449 1453 1456 1461 1464 1467 1470 1474 1476 1479 1479 1482 1482 1483 1483 1483 1482 1482
1348 1350 1350 1353 1356 1363 1371 1377 1383 1390 1397 1401 1408 1415 1422 1427 1432 1438 1442 1447 1451 1454 1457 1460 1464 1467 1469 1472 1474 1476 1477 1478 1479 1479 1479 1478 1477 1478
1351 1354 1360 1363 1367 1371 1378 1384 1390 1396 1401 1407 1414 1421 1426 1432 1436 1440 1444 1447 1451 1455 1459 1462 1465 1467 1468 1470 1472 1474 1476 1477 1477 1476 1476 1476 1474 1474
1355 1359 1365 1370 1375 1380 1387 1393 1396 1402 1409 1414 1419 1425 1430 1434 1439 1443 1446 1450 1453 1456 1459 1462 1464 1466 1468 1469 1471 1471 1472 1472 1473 1474 1473 1472 1471 1472